Вернуться в каталог

STARLINK-4486

АктивенСвязьVLEO
NORAD 53540·PAYLOAD·🇺🇸 United States

Запущен Aug 19, 2022 с Cape Canaveral Space Force Station

Loading…

Ближайшие Пролёты (ближайшие 24 часа)

TLE

СвежийSource: CelesTrak SupGP

Эпоха: Sep 15, 2026, 02:47 UTC

1 53540C 22101P   26258.11645833  .00013875  00000+0  87007-3 0  2583
2 53540  53.1596 293.4768 0001230  89.3843 264.1315 15.08829597    15

Отслеживайте STARLINK-4486 в реальном времени с AllMySat

Download on the App Store